Time,TemperatureF,DewpointF,PressureIn,WindDirection,WindDirectionDegrees,WindSpeedMPH,WindSpeedGustMPH,Humidity,HourlyPrecipIn,Conditions,Clouds,dailyrainin,SoftwareType,DateUTC
2013-03-11 00:03:00,67.3,63.6,30.09,South,181,0.0,0.0,88,0.00,,,0.00,Wunderground v.1.15,2013-03-10 13:03:00,
2013-03-11 00:08:00,67.0,63.3,30.09,South,181,1.0,1.0,88,0.00,,,0.00,Wunderground v.1.15,2013-03-10 13:08:00,
2013-03-11 00:14:00,66.8,63.5,30.09,South,181,0.0,0.0,89,0.00,,,0.00,Wunderground v.1.15,2013-03-10 13:14:00,
2013-03-11 00:19:00,66.6,63.3,30.09,South,181,0.0,0.0,89,0.00,,,0.00,Wunderground v.1.15,2013-03-10 13:19:00,
2013-03-11 00:25:00,66.4,63.1,30.08,South,181,0.0,0.0,89,0.00,,,0.00,Wunderground v.1.15,2013-03-10 13:25:00,
2013-03-11 00:30:00,66.5,63.2,30.09,South,180,0.0,1.0,89,0.00,,,-99.99,WeatherLink 5.9.3,2013-03-10 13:30:00,
2013-03-11 00:36:00,66.3,63.3,30.08,SSE,158,0.0,1.0,90,0.00,,,0.00,Wunderground v.1.15,2013-03-10 13:36:00,
2013-03-11 00:41:00,66.4,63.4,30.08,South,172,0.0,0.0,90,0.00,,,0.00,Wunderground v.1.15,2013-03-10 13:41:00,
2013-03-11 00:46:00,66.4,63.4,30.08,SE,139,0.0,0.0,90,0.00,,,0.00,Wunderground v.1.15,2013-03-10 13:46:00,
2013-03-11 00:52:00,66.5,63.2,30.08,NE,52,0.0,1.0,89,0.00,,,0.00,Wunderground v.1.15,2013-03-10 13:52:00,
2013-03-11 00:57:00,66.6,63.3,30.08,East,84,1.0,1.0,89,0.00,,,0.00,Wunderground v.1.15,2013-03-10 13:57:00,
2013-03-11 01:03:00,66.7,63.4,30.08,South,170,0.0,1.0,89,0.00,,,0.00,Wunderground v.1.15,2013-03-10 14:03:00,
2013-03-11 01:08:00,66.8,63.5,30.08,South,186,0.0,1.0,89,0.00,,,0.00,Wunderground v.1.15,2013-03-10 14:08:00,
2013-03-11 01:14:00,66.6,63.3,30.08,South,186,0.0,0.0,89,0.00,,,0.00,Wunderground v.1.15,2013-03-10 14:14:00,
2013-03-11 01:19:00,66.5,63.2,30.08,South,186,0.0,0.0,89,0.00,,,0.00,Wunderground v.1.15,2013-03-10 14:19:00,
2013-03-11 01:24:00,66.2,62.9,30.07,South,186,0.0,0.0,89,0.00,,,0.00,Wunderground v.1.15,2013-03-10 14:24:00,
2013-03-11 01:30:00,66.4,63.1,30.07,North,-999,0.0,0.0,89,0.00,,,-99.99,WeatherLink 5.9.3,2013-03-10 14:30:00,
2013-03-11 01:36:00,65.9,62.9,30.07,South,184,0.0,0.0,90,0.00,,,0.00,Wunderground v.1.15,2013-03-10 14:36:00,
2013-03-11 01:41:00,65.7,62.4,30.07,South,183,0.0,0.0,89,0.00,,,0.00,Wunderground v.1.15,2013-03-10 14:41:00,
2013-03-11 01:46:00,65.3,62.3,30.07,South,184,0.0,0.0,90,0.00,,,0.00,Wunderground v.1.15,2013-03-10 14:46:00,
2013-03-11 01:52:00,65.2,62.2,30.07,South,184,0.0,0.0,90,0.00,,,0.00,Wunderground v.1.15,2013-03-10 14:52:00,
2013-03-11 01:57:00,64.9,61.9,30.07,South,183,0.0,0.0,90,0.00,,,0.00,Wunderground v.1.15,2013-03-10 14:57:00,
2013-03-11 02:02:00,64.6,61.6,30.07,South,183,0.0,0.0,90,0.00,,,0.00,Wunderground v.1.15,2013-03-10 15:02:00,
2013-03-11 02:07:00,64.5,61.8,30.07,South,183,0.0,0.0,91,0.00,,,0.00,Wunderground v.1.15,2013-03-10 15:07:00,
2013-03-11 02:12:00,64.5,61.8,30.07,South,183,0.0,0.0,91,0.00,,,0.00,Wunderground v.1.15,2013-03-10 15:12:00,
2013-03-11 02:17:00,64.3,61.6,30.07,South,183,0.0,0.0,91,0.00,,,0.00,Wunderground v.1.15,2013-03-10 15:17:00,
2013-03-11 02:22:00,64.0,61.3,30.07,South,184,0.0,0.0,91,0.00,,,0.00,Wunderground v.1.15,2013-03-10 15:22:00,
2013-03-11 02:27:00,63.7,61.0,30.07,South,183,0.0,0.0,91,0.00,,,0.00,Wunderground v.1.15,2013-03-10 15:27:00,
2013-03-11 02:32:00,63.5,61.1,30.06,South,184,0.0,0.0,92,0.00,,,0.00,Wunderground v.1.15,2013-03-10 15:32:00,
2013-03-11 02:37:00,63.2,60.8,30.06,South,184,0.0,0.0,92,0.00,,,0.00,Wunderground v.1.15,2013-03-10 15:37:00,
2013-03-11 02:42:00,62.9,60.5,30.06,South,183,0.0,0.0,92,0.00,,,0.00,Wunderground v.1.15,2013-03-10 15:42:00,
2013-03-11 02:47:00,62.7,60.3,30.06,South,184,0.0,0.0,92,0.00,,,0.00,Wunderground v.1.15,2013-03-10 15:47:00,
2013-03-11 02:52:00,62.4,60.0,30.06,South,184,0.0,0.0,92,0.00,,,0.00,Wunderground v.1.15,2013-03-10 15:52:00,
2013-03-11 02:57:00,62.4,60.3,30.06,South,183,0.0,0.0,93,0.00,,,0.00,Wunderground v.1.15,2013-03-10 15:57:00,
2013-03-11 03:02:00,62.4,60.3,30.06,South,184,0.0,0.0,93,0.00,,,0.00,Wunderground v.1.15,2013-03-10 16:02:00,
2013-03-11 03:07:00,62.6,60.8,30.06,South,191,0.0,0.0,94,0.00,,,0.00,Wunderground v.1.15,2013-03-10 16:07:00,
2013-03-11 03:12:00,62.7,60.9,30.06,South,191,0.0,0.0,94,0.00,,,0.00,Wunderground v.1.15,2013-03-10 16:12:00,
2013-03-11 03:17:00,62.8,61.0,30.06,South,191,0.0,0.0,94,0.00,,,0.00,Wunderground v.1.15,2013-03-10 16:17:00,
2013-03-11 03:22:00,62.9,61.1,30.06,South,190,0.0,0.0,94,0.00,,,0.00,Wunderground v.1.15,2013-03-10 16:22:00,
2013-03-11 03:27:00,63.0,61.2,30.05,South,190,0.0,0.0,94,0.00,,,0.00,Wunderground v.1.15,2013-03-10 16:27:00,
2013-03-11 03:32:00,63.1,61.3,30.06,South,191,0.0,0.0,94,0.00,,,0.00,Wunderground v.1.15,2013-03-10 16:32:00,
2013-03-11 03:37:00,63.1,61.3,30.06,South,191,0.0,0.0,94,0.00,,,0.00,Wunderground v.1.15,2013-03-10 16:37:00,
2013-03-11 03:42:00,63.0,61.2,30.06,South,191,0.0,0.0,94,0.00,,,0.00,Wunderground v.1.15,2013-03-10 16:42:00,
2013-03-11 03:47:00,63.1,61.3,30.06,South,190,0.0,0.0,94,0.00,,,0.00,Wunderground v.1.15,2013-03-10 16:47:00,
2013-03-11 03:53:00,63.1,61.3,30.06,South,191,0.0,0.0,94,0.00,,,0.00,Wunderground v.1.15,2013-03-10 16:53:00,
2013-03-11 03:58:00,63.0,61.2,30.06,South,191,0.0,0.0,94,0.00,,,0.00,Wunderground v.1.15,2013-03-10 16:58:00,
2013-03-11 04:03:00,62.7,60.9,30.05,South,191,0.0,0.0,94,0.00,,,0.00,Wunderground v.1.15,2013-03-10 17:03:00,
2013-03-11 04:08:00,62.6,60.8,30.05,South,190,0.0,0.0,94,0.00,,,0.00,Wunderground v.1.15,2013-03-10 17:08:00,
2013-03-11 04:13:00,62.4,60.7,30.05,South,191,0.0,0.0,94,0.00,,,0.00,Wunderground v.1.15,2013-03-10 17:13:00,
2013-03-11 04:18:00,62.2,60.5,30.05,South,190,0.0,0.0,94,0.00,,,0.00,Wunderground v.1.15,2013-03-10 17:18:00,
2013-03-11 04:23:00,62.0,60.3,30.05,South,191,0.0,0.0,94,0.00,,,0.00,Wunderground v.1.15,2013-03-10 17:23:00,
2013-03-11 04:28:00,61.9,60.2,30.05,South,191,0.0,0.0,94,0.00,,,0.00,Wunderground v.1.15,2013-03-10 17:28:00,
2013-03-11 04:33:00,61.8,60.1,30.06,South,190,0.0,0.0,94,0.00,,,0.00,Wunderground v.1.15,2013-03-10 17:33:00,
2013-03-11 04:38:00,61.8,60.4,30.06,South,191,0.0,0.0,95,0.00,,,0.00,Wunderground v.1.15,2013-03-10 17:38:00,
2013-03-11 04:43:00,61.9,60.5,30.06,South,191,0.0,0.0,95,0.00,,,0.00,Wunderground v.1.15,2013-03-10 17:43:00,
2013-03-11 04:48:00,62.0,60.6,30.06,South,190,0.0,1.0,95,0.00,,,0.00,Wunderground v.1.15,2013-03-10 17:48:00,
2013-03-11 04:53:00,61.9,60.5,30.06,South,191,0.0,0.0,95,0.00,,,0.00,Wunderground v.1.15,2013-03-10 17:53:00,
2013-03-11 04:58:00,61.9,60.5,30.06,South,191,0.0,0.0,95,0.00,,,0.00,Wunderground v.1.15,2013-03-10 17:58:00,
2013-03-11 05:03:00,61.8,60.4,30.06,South,190,0.0,0.0,95,0.00,,,0.00,Wunderground v.1.15,2013-03-10 18:03:00,
2013-03-11 05:08:00,61.8,60.4,30.06,South,190,0.0,0.0,95,0.00,,,0.00,Wunderground v.1.15,2013-03-10 18:08:00,
2013-03-11 05:13:00,62.0,60.6,30.06,South,191,0.0,0.0,95,0.00,,,0.00,Wunderground v.1.15,2013-03-10 18:13:00,
2013-03-11 05:19:00,61.9,60.5,30.06,South,191,0.0,0.0,95,0.00,,,0.00,Wunderground v.1.15,2013-03-10 18:19:00,
2013-03-11 05:24:00,61.9,60.5,30.06,South,191,0.0,0.0,95,0.00,,,0.00,Wunderground v.1.15,2013-03-10 18:24:00,
2013-03-11 05:29:00,61.9,60.5,30.06,South,190,0.0,0.0,95,0.00,,,0.00,Wunderground v.1.15,2013-03-10 18:29:00,
2013-03-11 05:34:00,61.8,60.4,30.06,South,190,0.0,0.0,95,0.00,,,0.00,Wunderground v.1.15,2013-03-10 18:34:00,
2013-03-11 05:39:00,61.8,60.4,30.07,South,190,0.0,0.0,95,0.00,,,0.00,Wunderground v.1.15,2013-03-10 18:39:00,
2013-03-11 05:44:00,61.8,60.4,30.07,South,191,0.0,0.0,95,0.00,,,0.00,Wunderground v.1.15,2013-03-10 18:44:00,
2013-03-11 05:49:00,61.7,60.3,30.07,South,190,0.0,0.0,95,0.00,,,0.00,Wunderground v.1.15,2013-03-10 18:49:00,
2013-03-11 05:54:00,61.7,60.3,30.07,South,190,0.0,0.0,95,0.00,,,0.00,Wunderground v.1.15,2013-03-10 18:54:00,
2013-03-11 05:59:00,61.6,60.2,30.08,South,190,0.0,0.0,95,0.00,,,0.00,Wunderground v.1.15,2013-03-10 18:59:00,
2013-03-11 06:04:00,61.6,60.2,30.08,South,190,0.0,0.0,95,0.00,,,0.00,Wunderground v.1.15,2013-03-10 19:04:00,
2013-03-11 06:09:00,61.6,60.2,30.08,SSE,153,0.0,0.0,95,0.00,,,0.00,Wunderground v.1.15,2013-03-10 19:09:00,
2013-03-11 06:14:00,61.6,60.2,30.08,SSE,153,0.0,0.0,95,0.00,,,0.00,Wunderground v.1.15,2013-03-10 19:14:00,
2013-03-11 06:19:00,61.5,60.1,30.08,SSE,152,0.0,0.0,95,0.00,,,0.00,Wunderground v.1.15,2013-03-10 19:19:00,
2013-03-11 06:24:00,61.5,60.1,30.09,SSE,153,0.0,0.0,95,0.00,,,0.00,Wunderground v.1.15,2013-03-10 19:24:00,
2013-03-11 06:29:00,61.4,60.0,30.09,SSE,153,0.0,0.0,95,0.00,,,0.00,Wunderground v.1.15,2013-03-10 19:29:00,
2013-03-11 06:34:00,61.4,60.0,30.09,SSE,153,0.0,0.0,95,0.00,,,0.00,Wunderground v.1.15,2013-03-10 19:34:00,
2013-03-11 06:39:00,61.5,60.1,30.09,SSE,153,0.0,0.0,95,0.00,,,0.00,Wunderground v.1.15,2013-03-10 19:39:00,
2013-03-11 06:44:00,61.4,60.0,30.09,SSE,153,0.0,0.0,95,0.00,,,0.00,Wunderground v.1.15,2013-03-10 19:44:00,
2013-03-11 06:49:00,61.4,60.0,30.09,SSE,153,0.0,0.0,95,0.00,,,0.00,Wunderground v.1.15,2013-03-10 19:49:00,
2013-03-11 06:54:00,61.6,60.4,30.09,SSE,153,0.0,0.0,96,0.00,,,0.00,Wunderground v.1.15,2013-03-10 19:54:00,
2013-03-11 06:59:00,61.7,60.5,30.10,SSE,153,0.0,0.0,96,0.00,,,0.00,Wunderground v.1.15,2013-03-10 19:59:00,
2013-03-11 07:04:00,61.9,60.7,30.10,SSE,153,0.0,0.0,96,0.00,,,0.00,Wunderground v.1.15,2013-03-10 20:04:00,
2013-03-11 07:10:00,62.1,60.9,30.10,SSE,153,0.0,0.0,96,0.00,,,0.00,Wunderground v.1.15,2013-03-10 20:10:00,
2013-03-11 07:15:00,62.3,61.1,30.10,SSE,153,0.0,0.0,96,0.00,,,0.00,Wunderground v.1.15,2013-03-10 20:15:00,
2013-03-11 07:20:00,62.5,61.3,30.10,SSE,153,0.0,0.0,96,0.00,,,0.00,Wunderground v.1.15,2013-03-10 20:20:00,
2013-03-11 07:25:00,63.0,61.8,30.11,SSE,153,0.0,0.0,96,0.00,,,0.00,Wunderground v.1.15,2013-03-10 20:25:00,
2013-03-11 07:30:00,63.2,62.0,30.11,SSE,153,0.0,0.0,96,0.00,,,0.00,Wunderground v.1.15,2013-03-10 20:30:00,
2013-03-11 07:35:00,63.4,62.2,30.11,South,188,0.0,1.0,96,0.00,,,0.00,Wunderground v.1.15,2013-03-10 20:35:00,
2013-03-11 07:40:00,63.5,62.3,30.11,South,188,0.0,1.0,96,0.00,,,0.00,Wunderground v.1.15,2013-03-10 20:40:00,
2013-03-11 07:45:00,63.8,62.6,30.11,South,188,0.0,0.0,96,0.00,,,0.00,Wunderground v.1.15,2013-03-10 20:45:00,
2013-03-11 07:50:00,63.5,62.3,30.11,South,180,0.0,1.0,96,0.00,,,-99.99,WeatherLink 5.9.3,2013-03-10 20:50:00,
2013-03-11 07:55:00,64.6,63.4,30.12,SSW,192,0.0,1.0,96,0.00,,,0.00,Wunderground v.1.15,2013-03-10 20:55:00,
2013-03-11 08:01:00,65.1,63.9,30.12,South,190,0.0,1.0,96,0.00,,,0.00,Wunderground v.1.15,2013-03-10 21:01:00,
2013-03-11 08:06:00,65.7,64.2,30.12,SSW,210,0.0,1.0,95,0.00,,,0.00,Wunderground v.1.15,2013-03-10 21:06:00,
2013-03-11 08:11:00,64.2,63.0,30.11,SSW,202,0.0,1.0,96,0.00,,,-99.99,WeatherLink 5.9.3,2013-03-10 21:11:00,
2013-03-11 08:16:00,67.0,65.2,30.13,SW,217,1.0,2.0,94,0.00,,,0.00,Wunderground v.1.15,2013-03-10 21:16:00,
2013-03-11 08:21:00,68.0,65.9,30.13,South,172,1.0,2.0,93,0.00,,,0.00,Wunderground v.1.15,2013-03-10 21:21:00,
2013-03-11 08:26:00,68.9,66.2,30.13,South,180,1.0,3.0,91,0.00,,,0.00,Wunderground v.1.15,2013-03-10 21:26:00,
2013-03-11 08:32:00,69.5,66.1,30.13,South,190,0.0,3.0,89,0.00,,,0.00,Wunderground v.1.15,2013-03-10 21:32:00,
2013-03-11 08:37:00,70.1,66.4,30.13,WNW,283,0.0,3.0,88,0.00,,,0.00,Wunderground v.1.15,2013-03-10 21:37:00,
2013-03-11 08:42:00,70.5,66.8,30.13,WNW,288,0.0,2.0,88,0.00,,,0.00,Wunderground v.1.15,2013-03-10 21:42:00,
2013-03-11 08:47:00,71.4,67.0,30.13,SSW,211,0.0,2.0,86,0.00,,,0.00,Wunderground v.1.15,2013-03-10 21:47:00,
2013-03-11 08:52:00,72.3,67.5,30.13,SW,217,0.0,0.0,85,0.00,,,0.00,Wunderground v.1.15,2013-03-10 21:52:00,
2013-03-11 08:57:00,72.9,67.8,30.13,SW,217,0.0,0.0,84,0.00,,,0.00,Wunderground v.1.15,2013-03-10 21:57:00,
2013-03-11 09:02:00,73.4,67.6,30.13,SE,131,1.0,1.0,82,0.00,,,0.00,Wunderground v.1.15,2013-03-10 22:02:00,
2013-03-11 09:08:00,73.4,67.2,30.13,SSW,200,0.0,2.0,81,0.00,,,0.00,Wunderground v.1.15,2013-03-10 22:08:00,
2013-03-11 09:13:00,73.7,66.8,30.13,ENE,68,0.0,2.0,79,0.00,,,0.00,Wunderground v.1.15,2013-03-10 22:13:00,
2013-03-11 09:18:00,73.9,67.3,30.13,NNE,30,1.0,3.0,80,0.00,,,0.00,Wunderground v.1.15,2013-03-10 22:18:00,
2013-03-11 09:23:00,74.1,66.8,30.13,NE,55,0.0,1.0,78,0.00,,,0.00,Wunderground v.1.15,2013-03-10 22:23:00,
2013-03-11 09:28:00,74.1,66.8,30.13,East,91,1.0,4.0,78,0.00,,,0.00,Wunderground v.1.15,2013-03-10 22:28:00,
2013-03-11 09:33:00,74.0,66.7,30.13,NE,38,1.0,3.0,78,0.00,,,0.00,Wunderground v.1.15,2013-03-10 22:33:00,
2013-03-11 09:38:00,74.1,66.4,30.13,ESE,122,0.0,3.0,77,0.00,,,0.00,Wunderground v.1.15,2013-03-10 22:38:00,
2013-03-11 09:43:00,74.9,66.4,30.13,ENE,69,2.0,3.0,75,0.00,,,0.00,Wunderground v.1.15,2013-03-10 22:43:00,
2013-03-11 09:48:00,76.0,67.5,30.14,ENE,62,2.0,3.0,75,0.00,,,0.00,Wunderground v.1.15,2013-03-10 22:48:00,
2013-03-11 09:53:00,76.7,67.0,30.14,ENE,65,0.0,3.0,72,0.00,,,0.00,Wunderground v.1.15,2013-03-10 22:53:00,
2013-03-11 09:58:00,77.3,66.7,30.14,NE,47,2.0,5.0,70,0.00,,,0.00,Wunderground v.1.15,2013-03-10 22:58:00,
2013-03-11 10:03:00,78.3,68.1,30.14,SE,124,3.0,3.0,71,0.00,,,0.00,Wunderground v.1.15,2013-03-10 23:03:00,
2013-03-11 10:08:00,78.2,66.8,30.14,NE,55,2.0,4.0,68,0.00,,,0.00,Wunderground v.1.15,2013-03-10 23:08:00,
2013-03-11 10:13:00,78.4,66.1,30.14,North,5,1.0,3.0,66,0.00,,,0.00,Wunderground v.1.15,2013-03-10 23:13:00,
2013-03-11 10:18:00,78.7,65.5,30.14,NE,39,0.0,5.0,64,0.00,,,0.00,Wunderground v.1.15,2013-03-10 23:18:00,
2013-03-11 10:23:00,78.7,65.5,30.14,South,179,1.0,3.0,64,0.00,,,0.00,Wunderground v.1.15,2013-03-10 23:23:00,
2013-03-11 10:28:00,78.8,65.1,30.14,East,99,2.0,4.0,63,0.00,,,0.00,Wunderground v.1.15,2013-03-10 23:28:00,
2013-03-11 10:34:00,78.3,64.7,30.14,NE,55,4.0,4.0,63,0.00,,,0.00,Wunderground v.1.15,2013-03-10 23:34:00,
2013-03-11 10:39:00,78.1,65.4,30.14,East,82,2.0,6.0,65,0.00,,,0.00,Wunderground v.1.15,2013-03-10 23:39:00,
2013-03-11 10:44:00,78.2,65.0,30.14,NE,49,4.0,4.0,64,0.00,,,0.00,Wunderground v.1.15,2013-03-10 23:44:00,
2013-03-11 10:49:00,78.1,65.8,30.14,NE,41,1.0,4.0,66,0.00,,,0.00,Wunderground v.1.15,2013-03-10 23:49:00,
2013-03-11 10:54:00,78.1,65.4,30.14,NE,52,2.0,4.0,65,0.00,,,0.00,Wunderground v.1.15,2013-03-10 23:54:00,
2013-03-11 10:59:00,78.4,65.2,30.14,NE,46,2.0,5.0,64,0.00,,,0.00,Wunderground v.1.15,2013-03-10 23:59:00,
2013-03-11 11:04:00,78.4,64.8,30.14,NE,45,1.0,7.0,63,0.00,,,0.00,Wunderground v.1.15,2013-03-11 00:04:00,
2013-03-11 11:09:00,78.4,66.1,30.14,ENE,65,3.0,7.0,66,0.00,,,0.00,Wunderground v.1.15,2013-03-11 00:09:00,
2013-03-11 11:14:00,78.8,65.6,30.14,ENE,65,1.0,7.0,64,0.00,,,0.00,Wunderground v.1.15,2013-03-11 00:14:00,
2013-03-11 11:19:00,79.2,65.5,30.14,ENE,68,3.0,7.0,63,0.00,,,0.00,Wunderground v.1.15,2013-03-11 00:19:00,
2013-03-11 11:24:00,79.0,64.4,30.14,SSW,195,1.0,5.0,61,0.00,,,0.00,Wunderground v.1.15,2013-03-11 00:24:00,
2013-03-11 11:29:00,80.0,65.8,30.14,East,101,1.0,5.0,62,0.00,,,0.00,Wunderground v.1.15,2013-03-11 00:29:00,
2013-03-11 11:34:00,80.6,65.9,30.13,ESE,110,2.0,5.0,61,0.00,,,0.00,Wunderground v.1.15,2013-03-11 00:34:00,
2013-03-11 11:39:00,81.3,65.6,30.13,NE,49,2.0,5.0,59,0.00,,,0.00,Wunderground v.1.15,2013-03-11 00:39:00,
2013-03-11 11:45:00,82.0,66.3,30.13,NE,46,0.0,3.0,59,0.00,,,0.00,Wunderground v.1.15,2013-03-11 00:45:00,
2013-03-11 11:50:00,82.3,65.5,30.13,ENE,63,4.0,4.0,57,0.00,,,0.00,Wunderground v.1.15,2013-03-11 00:50:00,
2013-03-11 11:55:00,81.0,65.3,30.13,ESE,114,1.0,4.0,59,0.00,,,0.00,Wunderground v.1.15,2013-03-11 00:55:00,
2013-03-11 12:00:00,80.1,65.4,30.13,NE,52,0.0,2.0,61,0.00,,,0.00,Wunderground v.1.15,2013-03-11 01:00:00,
2013-03-11 12:05:00,79.6,65.4,30.13,NE,41,1.0,4.0,62,0.00,,,0.00,Wunderground v.1.15,2013-03-11 01:05:00,
2013-03-11 12:10:00,79.8,66.5,30.13,SW,217,2.0,2.0,64,0.00,,,0.00,Wunderground v.1.15,2013-03-11 01:10:00,
2013-03-11 12:15:00,80.8,65.6,30.12,NE,47,1.0,4.0,60,0.00,,,0.00,Wunderground v.1.15,2013-03-11 01:15:00,
2013-03-11 12:20:00,80.9,65.7,30.13,SE,135,2.0,4.0,60,0.00,,,-99.99,WeatherLink 5.9.3,2013-03-11 01:20:00,
2013-03-11 12:25:00,80.1,65.0,30.12,ENE,61,0.0,4.0,60,0.00,,,0.00,Wunderground v.1.15,2013-03-11 01:25:00,
2013-03-11 12:30:00,80.7,65.0,30.12,SSE,157,2.0,6.0,59,0.00,,,-99.99,WeatherLink 5.9.3,2013-03-11 01:30:00,
2013-03-11 12:35:00,79.5,65.3,30.12,SSE,164,1.0,3.0,62,0.00,,,0.00,Wunderground v.1.15,2013-03-11 01:35:00,
2013-03-11 12:41:00,79.7,65.1,30.12,ENE,67,2.0,4.0,61,0.00,,,-99.99,WeatherLink 5.9.3,2013-03-11 01:41:00,
2013-03-11 12:46:00,78.9,65.2,30.12,South,180,0.0,4.0,63,0.00,,,0.00,Wunderground v.1.15,2013-03-11 01:46:00,
2013-03-11 12:51:00,79.3,65.1,30.12,South,180,2.0,4.0,62,0.00,,,-99.99,WeatherLink 5.9.3,2013-03-11 01:51:00,
2013-03-11 12:56:00,79.7,65.1,30.11,NE,37,0.0,2.0,61,0.00,,,0.00,Wunderground v.1.15,2013-03-11 01:56:00,
2013-03-11 13:01:00,79.2,65.5,30.11,ENE,67,1.0,4.0,63,0.00,,,-99.99,WeatherLink 5.9.3,2013-03-11 02:01:00,
2013-03-11 13:06:00,79.8,66.1,30.11,ENE,76,1.0,3.0,63,0.00,,,0.00,Wunderground v.1.15,2013-03-11 02:06:00,
2013-03-11 13:11:00,79.6,66.3,30.11,ENE,67,2.0,5.0,64,0.00,,,-99.99,WeatherLink 5.9.3,2013-03-11 02:11:00,
2013-03-11 13:16:00,80.0,66.3,30.11,ESE,105,2.0,5.0,63,0.00,,,0.00,Wunderground v.1.15,2013-03-11 02:16:00,
2013-03-11 13:21:00,80.7,66.5,30.10,ENE,66,2.0,5.0,62,0.00,,,0.00,Wunderground v.1.15,2013-03-11 02:21:00,
2013-03-11 13:26:00,80.8,65.6,30.10,South,180,5.0,5.0,60,0.00,,,0.00,Wunderground v.1.15,2013-03-11 02:26:00,
2013-03-11 13:31:00,79.7,65.5,30.10,ESE,115,2.0,4.0,62,0.00,,,0.00,Wunderground v.1.15,2013-03-11 02:31:00,
2013-03-11 13:37:00,79.4,65.7,30.10,East,100,1.0,4.0,63,0.00,,,0.00,Wunderground v.1.15,2013-03-11 02:37:00,
2013-03-11 13:42:00,80.0,66.7,30.10,ESE,116,2.0,5.0,64,0.00,,,0.00,Wunderground v.1.15,2013-03-11 02:42:00,
2013-03-11 13:47:00,80.1,65.9,30.10,SSE,163,5.0,6.0,62,0.00,,,0.00,Wunderground v.1.15,2013-03-11 02:47:00,
2013-03-11 13:52:00,79.6,65.9,30.10,East,90,2.0,4.0,63,0.00,,,0.00,Wunderground v.1.15,2013-03-11 02:52:00,
2013-03-11 13:57:00,79.4,66.2,30.10,East,98,2.0,6.0,64,0.00,,,0.00,Wunderground v.1.15,2013-03-11 02:57:00,
2013-03-11 14:02:00,78.7,66.4,30.10,NE,54,5.0,6.0,66,0.00,,,0.00,Wunderground v.1.15,2013-03-11 03:02:00,
2013-03-11 14:07:00,78.0,65.7,30.10,SSE,150,1.0,9.0,66,0.00,,,0.00,Wunderground v.1.15,2013-03-11 03:07:00,
2013-03-11 14:12:00,77.8,65.5,30.10,NE,41,3.0,6.0,66,0.00,,,0.00,Wunderground v.1.15,2013-03-11 03:12:00,
2013-03-11 14:17:00,77.7,65.4,30.09,NE,47,3.0,6.0,66,0.00,,,0.00,Wunderground v.1.15,2013-03-11 03:17:00,
2013-03-11 14:22:00,78.0,65.7,30.09,NNE,32,4.0,4.0,66,0.00,,,0.00,Wunderground v.1.15,2013-03-11 03:22:00,
2013-03-11 14:27:00,77.9,65.6,30.09,ENE,62,3.0,8.0,66,0.00,,,0.00,Wunderground v.1.15,2013-03-11 03:27:00,
2013-03-11 14:32:00,77.7,65.4,30.09,NNE,23,1.0,6.0,66,0.00,,,0.00,Wunderground v.1.15,2013-03-11 03:32:00,
2013-03-11 14:37:00,77.4,66.4,30.09,SSE,148,3.0,6.0,69,0.00,,,0.00,Wunderground v.1.15,2013-03-11 03:37:00,
2013-03-11 14:42:00,77.0,66.5,30.09,NNE,14,3.0,4.0,70,0.00,,,0.00,Wunderground v.1.15,2013-03-11 03:42:00,
2013-03-11 14:47:00,77.0,66.5,30.09,ENE,75,5.0,5.0,70,0.00,,,0.00,Wunderground v.1.15,2013-03-11 03:47:00,
2013-03-11 14:52:00,76.8,66.3,30.09,NE,55,4.0,8.0,70,0.00,,,0.00,Wunderground v.1.15,2013-03-11 03:52:00,
2013-03-11 14:57:00,76.7,66.2,30.09,NE,52,5.0,8.0,70,0.00,,,0.00,Wunderground v.1.15,2013-03-11 03:57:00,
2013-03-11 15:00:00,76.7,65.8,30.08,ENE,72,3.0,3.0,69,0.00,,,0.00,Wunderground v.1.15,2013-03-11 04:00:00,
2013-03-11 15:01:00,76.7,65.8,30.08,NE,45,2.0,5.0,69,0.00,,,-99.99,WeatherLink 5.9.3,2013-03-11 04:01:00,
2013-03-11 15:06:00,77.1,66.1,30.08,NNE,17,2.0,5.0,69,0.00,,,0.00,Wunderground v.1.15,2013-03-11 04:06:00,
2013-03-11 15:11:00,77.8,66.0,30.08,ENE,58,3.0,5.0,67,0.00,,,0.00,Wunderground v.1.15,2013-03-11 04:11:00,
2013-03-11 15:16:00,77.9,65.6,30.08,NE,38,1.0,7.0,66,0.00,,,0.00,Wunderground v.1.15,2013-03-11 04:16:00,
2013-03-11 15:22:00,77.6,64.9,30.08,ENE,57,3.0,4.0,65,0.00,,,0.00,Wunderground v.1.15,2013-03-11 04:22:00,
2013-03-11 15:27:00,77.8,65.1,30.08,NE,37,5.0,9.0,65,0.00,,,0.00,Wunderground v.1.15,2013-03-11 04:27:00,
2013-03-11 15:32:00,78.6,65.4,30.08,NE,34,7.0,7.0,64,0.00,,,0.00,Wunderground v.1.15,2013-03-11 04:32:00,
2013-03-11 15:37:00,79.1,64.5,30.08,NE,44,3.0,8.0,61,0.00,,,0.00,Wunderground v.1.15,2013-03-11 04:37:00,
2013-03-11 15:42:00,78.7,64.6,30.08,NE,47,4.0,4.0,62,0.00,,,0.00,Wunderground v.1.15,2013-03-11 04:42:00,
2013-03-11 15:47:00,78.3,64.2,30.08,East,86,2.0,4.0,62,0.00,,,0.00,Wunderground v.1.15,2013-03-11 04:47:00,
2013-03-11 15:52:00,78.3,64.2,30.07,East,94,3.0,3.0,62,0.00,,,0.00,Wunderground v.1.15,2013-03-11 04:52:00,
2013-03-11 15:57:00,79.0,64.9,30.07,NNE,29,1.0,5.0,62,0.00,,,0.00,Wunderground v.1.15,2013-03-11 04:57:00,
2013-03-11 16:02:00,79.3,64.2,30.07,East,79,6.0,6.0,60,0.00,,,0.00,Wunderground v.1.15,2013-03-11 05:02:00,
2013-03-11 16:07:00,79.3,64.2,30.07,ENE,75,4.0,6.0,60,0.00,,,0.00,Wunderground v.1.15,2013-03-11 05:07:00,
2013-03-11 16:12:00,79.7,65.1,30.07,NE,52,4.0,8.0,61,0.00,,,0.00,Wunderground v.1.15,2013-03-11 05:12:00,
2013-03-11 16:17:00,79.3,64.7,30.07,NE,45,6.0,9.0,61,0.00,,,0.00,Wunderground v.1.15,2013-03-11 05:17:00,
2013-03-11 16:22:00,79.0,65.3,30.07,ENE,59,2.0,7.0,63,0.00,,,0.00,Wunderground v.1.15,2013-03-11 05:22:00,
2013-03-11 16:27:00,79.3,65.1,30.07,ENE,75,3.0,7.0,62,0.00,,,0.00,Wunderground v.1.15,2013-03-11 05:27:00,
2013-03-11 16:32:00,79.2,65.1,30.07,NE,47,3.0,6.0,62,0.00,,,0.00,Wunderground v.1.15,2013-03-11 05:32:00,
2013-03-11 16:38:00,79.4,65.7,30.07,NE,41,3.0,7.0,63,0.00,,,0.00,Wunderground v.1.15,2013-03-11 05:38:00,
2013-03-11 16:43:00,79.5,65.3,30.07,NE,45,3.0,8.0,62,0.00,,,0.00,Wunderground v.1.15,2013-03-11 05:43:00,
2013-03-11 16:48:00,79.6,65.9,30.07,ESE,117,4.0,8.0,63,0.00,,,0.00,Wunderground v.1.15,2013-03-11 05:48:00,
2013-03-11 16:53:00,79.5,65.8,30.07,NE,47,8.0,8.0,63,0.00,,,0.00,Wunderground v.1.15,2013-03-11 05:53:00,
2013-03-11 16:58:00,79.0,65.8,30.07,East,101,3.0,8.0,64,0.00,,,0.00,Wunderground v.1.15,2013-03-11 05:58:00,
2013-03-11 17:03:00,78.8,65.6,30.07,NE,49,4.0,5.0,64,0.00,,,0.00,Wunderground v.1.15,2013-03-11 06:03:00,
2013-03-11 17:08:00,78.8,66.0,30.07,East,101,1.0,5.0,65,0.00,,,0.00,Wunderground v.1.15,2013-03-11 06:08:00,
2013-03-11 17:13:00,78.8,66.0,30.07,ENE,72,1.0,4.0,65,0.00,,,0.00,Wunderground v.1.15,2013-03-11 06:13:00,
2013-03-11 17:18:00,78.5,66.2,30.07,East,83,2.0,5.0,66,0.00,,,0.00,Wunderground v.1.15,2013-03-11 06:18:00,
2013-03-11 17:23:00,78.2,66.3,30.07,NE,45,1.0,5.0,67,0.00,,,0.00,Wunderground v.1.15,2013-03-11 06:23:00,
2013-03-11 17:28:00,77.7,65.9,30.07,East,89,3.0,7.0,67,0.00,,,0.00,Wunderground v.1.15,2013-03-11 06:28:00,
2013-03-11 17:33:00,77.2,65.8,30.07,NE,52,4.0,6.0,68,0.00,,,0.00,Wunderground v.1.15,2013-03-11 06:33:00,
2013-03-11 17:38:00,76.9,65.5,30.07,ENE,71,3.0,6.0,68,0.00,,,0.00,Wunderground v.1.15,2013-03-11 06:38:00,
2013-03-11 17:43:00,76.7,64.9,30.07,ENE,59,3.0,8.0,67,0.00,,,0.00,Wunderground v.1.15,2013-03-11 06:43:00,
2013-03-11 17:48:00,76.5,65.1,30.08,East,79,5.0,8.0,68,0.00,,,0.00,Wunderground v.1.15,2013-03-11 06:48:00,
2013-03-11 17:53:00,76.3,64.1,30.08,ESE,105,2.0,7.0,66,0.00,,,0.00,Wunderground v.1.15,2013-03-11 06:53:00,
2013-03-11 17:58:00,76.1,63.9,30.08,East,91,7.0,8.0,66,0.00,,,0.00,Wunderground v.1.15,2013-03-11 06:58:00,
2013-03-11 18:03:00,75.9,64.2,30.08,ESE,107,2.0,5.0,67,0.00,,,0.00,Wunderground v.1.15,2013-03-11 07:03:00,
2013-03-11 18:08:00,75.7,64.0,30.08,ENE,61,2.0,5.0,67,0.00,,,0.00,Wunderground v.1.15,2013-03-11 07:08:00,
2013-03-11 18:13:00,75.5,63.8,30.08,ENE,59,7.0,8.0,67,0.00,,,0.00,Wunderground v.1.15,2013-03-11 07:13:00,
2013-03-11 18:18:00,75.4,64.5,30.08,East,96,3.0,8.0,69,0.00,,,0.00,Wunderground v.1.15,2013-03-11 07:18:00,
2013-03-11 18:23:00,75.4,64.9,30.08,East,97,3.0,7.0,70,0.00,,,0.00,Wunderground v.1.15,2013-03-11 07:23:00,
2013-03-11 18:29:00,75.2,65.1,30.08,ENE,70,1.0,7.0,71,0.00,,,0.00,Wunderground v.1.15,2013-03-11 07:29:00,
2013-03-11 18:33:00,75.1,65.5,30.09,SE,124,1.0,5.0,72,0.00,,,0.00,Wunderground v.1.15,2013-03-11 07:33:00,
2013-03-11 18:38:00,74.9,65.3,30.09,ENE,57,3.0,5.0,72,0.00,,,0.00,Wunderground v.1.15,2013-03-11 07:38:00,
2013-03-11 18:43:00,74.8,65.6,30.09,ENE,61,2.0,3.0,73,0.00,,,0.00,Wunderground v.1.15,2013-03-11 07:43:00,
2013-03-11 18:49:00,74.7,65.9,30.09,ENE,75,1.0,4.0,74,0.00,,,0.00,Wunderground v.1.15,2013-03-11 07:49:00,
2013-03-11 18:54:00,74.5,66.1,30.09,ESE,121,2.0,3.0,75,0.00,,,0.00,Wunderground v.1.15,2013-03-11 07:54:00,
2013-03-11 18:59:00,74.4,66.3,30.09,SE,129,1.0,6.0,76,0.00,,,0.00,Wunderground v.1.15,2013-03-11 07:59:00,
2013-03-11 19:04:00,74.1,66.4,30.09,NE,45,1.0,5.0,77,0.00,,,0.00,Wunderground v.1.15,2013-03-11 08:04:00,
2013-03-11 19:09:00,74.0,66.3,30.10,East,94,1.0,5.0,77,0.00,,,0.00,Wunderground v.1.15,2013-03-11 08:09:00,
2013-03-11 19:14:00,73.8,66.5,30.10,NE,54,3.0,4.0,78,0.00,,,0.00,Wunderground v.1.15,2013-03-11 08:14:00,
2013-03-11 19:19:00,73.6,66.3,30.10,East,98,4.0,6.0,78,0.00,,,0.00,Wunderground v.1.15,2013-03-11 08:19:00,
2013-03-11 19:24:00,73.4,66.5,30.10,East,98,1.0,4.0,79,0.00,,,0.00,Wunderground v.1.15,2013-03-11 08:24:00,
2013-03-11 19:29:00,73.2,66.3,30.10,ESE,104,0.0,4.0,79,0.00,,,0.00,Wunderground v.1.15,2013-03-11 08:29:00,
2013-03-11 19:34:00,73.1,66.2,30.10,ENE,70,1.0,5.0,79,0.00,,,0.00,Wunderground v.1.15,2013-03-11 08:34:00,
2013-03-11 19:39:00,72.9,66.4,30.10,East,84,1.0,5.0,80,0.00,,,0.00,Wunderground v.1.15,2013-03-11 08:39:00,
2013-03-11 19:44:00,72.7,66.2,30.10,East,100,1.0,3.0,80,0.00,,,0.00,Wunderground v.1.15,2013-03-11 08:44:00,
2013-03-11 19:49:00,72.6,66.1,30.11,NE,43,3.0,4.0,80,0.00,,,0.00,Wunderground v.1.15,2013-03-11 08:49:00,
2013-03-11 19:54:00,72.4,66.2,30.11,ENE,69,0.0,2.0,81,0.00,,,0.00,Wunderground v.1.15,2013-03-11 08:54:00,
2013-03-11 19:59:00,72.3,66.1,30.11,ESE,111,2.0,4.0,81,0.00,,,0.00,Wunderground v.1.15,2013-03-11 08:59:00,
2013-03-11 20:04:00,72.1,65.9,30.11,ENE,77,1.0,3.0,81,0.00,,,0.00,Wunderground v.1.15,2013-03-11 09:04:00,
2013-03-11 20:09:00,72.0,65.8,30.12,ENE,58,0.0,3.0,81,0.00,,,0.00,Wunderground v.1.15,2013-03-11 09:09:00,
2013-03-11 20:14:00,71.8,65.7,30.12,ENE,59,3.0,3.0,81,0.00,,,0.00,Wunderground v.1.15,2013-03-11 09:14:00,
2013-03-11 20:20:00,71.6,65.5,30.12,NE,48,1.0,1.0,81,0.00,,,0.00,Wunderground v.1.15,2013-03-11 09:20:00,
2013-03-11 20:25:00,71.5,65.7,30.12,ENE,59,0.0,2.0,82,0.00,,,0.00,Wunderground v.1.15,2013-03-11 09:25:00,
2013-03-11 20:30:00,71.3,65.5,30.12,East,100,0.0,1.0,82,0.00,,,0.00,Wunderground v.1.15,2013-03-11 09:30:00,
2013-03-11 20:35:00,71.1,65.7,30.12,East,79,0.0,2.0,83,0.00,,,0.00,Wunderground v.1.15,2013-03-11 09:35:00,
2013-03-11 20:40:00,70.9,65.5,30.13,ENE,75,0.0,0.0,83,0.00,,,0.00,Wunderground v.1.15,2013-03-11 09:40:00,
2013-03-11 20:45:00,70.8,65.4,30.13,East,100,0.0,1.0,83,0.00,,,0.00,Wunderground v.1.15,2013-03-11 09:45:00,
2013-03-11 20:50:00,70.6,65.5,30.13,East,97,0.0,0.0,84,0.00,,,0.00,Wunderground v.1.15,2013-03-11 09:50:00,
2013-03-11 20:55:00,70.5,65.4,30.13,ENE,62,0.0,1.0,84,0.00,,,0.00,Wunderground v.1.15,2013-03-11 09:55:00,
2013-03-11 21:00:00,70.3,65.2,30.13,NE,46,0.0,0.0,84,0.00,,,0.00,Wunderground v.1.15,2013-03-11 10:00:00,
2013-03-11 21:05:00,70.2,65.1,30.13,ENE,66,0.0,2.0,84,0.00,,,0.00,Wunderground v.1.15,2013-03-11 10:05:00,
2013-03-11 21:10:00,70.1,65.0,30.13,ENE,68,0.0,0.0,84,0.00,,,0.00,Wunderground v.1.15,2013-03-11 10:10:00,
2013-03-11 21:15:00,70.0,64.9,30.13,ENE,57,0.0,1.0,84,0.00,,,0.00,Wunderground v.1.15,2013-03-11 10:15:00,
2013-03-11 21:20:00,69.9,65.2,30.13,ENE,58,0.0,0.0,85,0.00,,,0.00,Wunderground v.1.15,2013-03-11 10:20:00,
2013-03-11 21:25:00,69.7,65.0,30.13,ENE,71,0.0,1.0,85,0.00,,,0.00,Wunderground v.1.15,2013-03-11 10:25:00,
2013-03-11 21:30:00,69.6,64.9,30.14,ENE,72,0.0,0.0,85,0.00,,,0.00,Wunderground v.1.15,2013-03-11 10:30:00,
2013-03-11 21:35:00,69.6,64.9,30.14,NNE,20,0.0,0.0,85,0.00,,,0.00,Wunderground v.1.15,2013-03-11 10:35:00,
2013-03-11 21:40:00,69.5,64.8,30.14,NNE,19,0.0,0.0,85,0.00,,,0.00,Wunderground v.1.15,2013-03-11 10:40:00,
2013-03-11 21:45:00,69.4,64.7,30.14,NE,43,0.0,1.0,85,0.00,,,0.00,Wunderground v.1.15,2013-03-11 10:45:00,
2013-03-11 21:50:00,69.3,64.3,30.14,NE,53,0.0,0.0,84,0.00,,,0.00,Wunderground v.1.15,2013-03-11 10:50:00,
2013-03-11 21:55:00,69.2,64.2,30.14,NE,53,0.0,1.0,84,0.00,,,0.00,Wunderground v.1.15,2013-03-11 10:55:00,
2013-03-11 22:00:00,69.0,64.0,30.14,NE,53,0.0,0.0,84,0.00,,,0.00,Wunderground v.1.15,2013-03-11 11:00:00,
2013-03-11 22:05:00,68.8,64.1,30.14,NE,53,0.0,0.0,85,0.00,,,0.00,Wunderground v.1.15,2013-03-11 11:05:00,
2013-03-11 22:11:00,69.3,64.3,30.14,NE,45,0.0,1.0,84,0.00,,,-99.99,WeatherLink 5.9.3,2013-03-11 11:11:00,
2013-03-11 22:16:00,68.2,63.9,30.14,NE,53,0.0,0.0,86,0.00,,,0.00,Wunderground v.1.15,2013-03-11 11:16:00,
2013-03-11 22:21:00,67.9,63.2,30.14,NE,53,0.0,0.0,85,0.00,,,0.00,Wunderground v.1.15,2013-03-11 11:21:00,
2013-03-11 22:26:00,67.6,63.3,30.14,NE,53,0.0,0.0,86,0.00,,,0.00,Wunderground v.1.15,2013-03-11 11:26:00,
2013-03-11 22:32:00,67.4,63.1,30.14,NE,53,0.0,0.0,86,0.00,,,0.00,Wunderground v.1.15,2013-03-11 11:32:00,
2013-03-11 22:37:00,67.2,63.2,30.14,NE,53,0.0,0.0,87,0.00,,,0.00,Wunderground v.1.15,2013-03-11 11:37:00,
2013-03-11 22:42:00,67.1,63.1,30.15,SSW,200,0.0,1.0,87,0.00,,,0.00,Wunderground v.1.15,2013-03-11 11:42:00,
2013-03-11 22:47:00,67.1,63.1,30.14,SSW,200,0.0,1.0,87,0.00,,,0.00,Wunderground v.1.15,2013-03-11 11:47:00,
2013-03-11 22:52:00,67.2,63.2,30.14,SSW,200,0.0,0.0,87,0.00,,,0.00,Wunderground v.1.15,2013-03-11 11:52:00,
2013-03-11 22:57:00,67.1,63.1,30.14,SSW,200,0.0,0.0,87,0.00,,,0.00,Wunderground v.1.15,2013-03-11 11:57:00,
2013-03-11 23:02:00,66.9,62.9,30.14,SSW,200,0.0,0.0,87,0.00,,,0.00,Wunderground v.1.15,2013-03-11 12:02:00,
2013-03-11 23:07:00,66.8,62.8,30.14,SSW,200,0.0,0.0,87,0.00,,,0.00,Wunderground v.1.15,2013-03-11 12:07:00,
2013-03-11 23:12:00,66.7,62.7,30.14,SSW,200,0.0,0.0,87,0.00,,,0.00,Wunderground v.1.15,2013-03-11 12:12:00,
2013-03-11 23:17:00,66.6,62.9,30.14,SSW,200,0.0,0.0,88,0.00,,,0.00,Wunderground v.1.15,2013-03-11 12:17:00,
2013-03-11 23:22:00,66.6,62.9,30.14,SSW,200,0.0,0.0,88,0.00,,,0.00,Wunderground v.1.15,2013-03-11 12:22:00,
2013-03-11 23:27:00,66.6,62.9,30.14,SSW,200,0.0,0.0,88,0.00,,,0.00,Wunderground v.1.15,2013-03-11 12:27:00,
2013-03-11 23:32:00,66.4,62.7,30.14,SSW,200,0.0,0.0,88,0.00,,,0.00,Wunderground v.1.15,2013-03-11 12:32:00,
2013-03-11 23:37:00,66.2,62.5,30.14,SSW,200,0.0,0.0,88,0.00,,,0.00,Wunderground v.1.15,2013-03-11 12:37:00,
2013-03-11 23:42:00,66.1,62.8,30.15,SSW,200,0.0,0.0,89,0.00,,,0.00,Wunderground v.1.15,2013-03-11 12:42:00,
2013-03-11 23:47:00,65.8,62.5,30.14,SSW,200,0.0,0.0,89,0.00,,,0.00,Wunderground v.1.15,2013-03-11 12:47:00,
2013-03-11 23:52:00,65.5,62.2,30.14,SSW,200,0.0,0.0,89,0.00,,,0.00,Wunderground v.1.15,2013-03-11 12:52:00,
2013-03-11 23:57:00,65.3,62.3,30.14,SSW,200,0.0,0.0,90,0.00,,,0.00,Wunderground v.1.15,2013-03-11 12:57:00,